Other Surface Observations
Issued by NWS

Home | Current Version | Previous Version | Text Only | Print | Product List | Glossary On
Versions: 1 2 3 4 5 6 7 8 9 10 11 12 13 14 15 16 17 18 19 20 21 22 23 24 25 26 27 28 29 30 31 32 33 34 35 36 37 38 39 40 41 42 43 44 45 46 47 48 49 50
000
SXUS52 KTAE 300605
OSOTAE
OSOTAE
North Florida/South Alabama/Southwest Georgia Weather Roundup
National Weather Service Tallahassee Florida
200 AM EDT SAT AUG 30 2014

Note: "fair" indicates few or no clouds below 12,000 feet with no
significant weather and/or obstructions to visibility.

!FLZ017-115-028-034-025-300700
...North Florida...

CITY           SKY/WX    TMP DP  RH WIND       PRES   REMARKS
TALLAHASSEE    FAIR      77  74  90 CALM      30.10R
APALACHICOLA   FAIR      81  76  84 SW5       30.08R
PERRY          FAIR      73  72  94 E5        30.11F
CROSS CITY       N/A     75  72  90 CALM      30.11R
HOMERVILLE     MOCLDY    79  73  83 CALM      30.12S
JACKSONVILLE   MOCLDY    77  75  93 S3        30.10F
$$

!FLZ112-006-005-002-011-300700
...Florida Panhandle...

CITY           SKY/WX    TMP DP  RH WIND       PRES   REMARKS
MARIANNA       FAIR      75  75 100 CALM      30.08R
BONIFAY        LGT RAIN  74  73  97 CALM      30.09R
PANAMA CITY NW FAIR      77  74  90 CALM      30.08R
TYNDALL AFB    FAIR      82  76  80 SW8       30.09R HX  90
TYND DRONE APT FAIR      82  77  84 SW8       30.07R HX  90
DE FUNIAK SPR  FAIR      76  75  95 SE3       30.09R
EGLIN AFB      MOCLDY    82  77  84 SW7       30.06S
DESTIN         FAIR      83  77  82 SW5       30.07R HX  92
HURLBURT       NOT AVBL
CRESTVIEW      FAIR      76  74  93 CALM      30.08R
PENSACOLA      FAIR      77  74  90 SW6       30.06R
$$

!ALZ063-066-300700
...South Alabama...

CITY           SKY/WX    TMP DP  RH WIND       PRES   REMARKS
DOTHAN         FAIR      74  72  93 SE3       30.13R
OZARK CAIRNS   FAIR      75  73  93 SE2       30.09R
FT RUCKER HELI FAIR      75  72  90 CALM      30.08R
RUCKER HELI 3  FAIR      76  73  89 SE5       30.11R
RUCKER HELI 2  FAIR      75  73  93 SE3       30.09R
FLORALA APT    FAIR      75  72  90 CALM      30.09R
ANDALUSIA      FAIR      79  74  84 CALM      30.07S
TROY           FAIR      76  73  91 S3        30.08S
EUFALA         FAIR      75  71  87 CALM      30.09R
MOBILE         MOCLDY    76  75  97 S6        30.07R
$$

!GAZ120>161-300700
...Southwest and South Central Georgia...

CITY           SKY/WX    TMP DP  RH WIND       PRES   REMARKS
THOMASVILLE    FAIR      77  77 100 CALM      30.11F
BAINBRIDGE     FAIR      79  77  94 CALM      30.10R
MOODY AFB      FAIR      76  73  89 E2        30.10F
VALDOSTA       CLOUDY    77  73  87 CALM      30.11R
MOULTRIE       FAIR      77  77 100 CALM      30.11F
BLAKELY        FAIR      77  75  94 CALM        N/A
ALBANY         FAIR      77  74  90 CALM      30.12S
TIFTON         FAIR      78  73  84 CALM      30.11S
FITZGERALD     CLOUDY    77  74  91 CALM      30.13S
CORDELE        FAIR      82  74  76 S3        30.12S
AMERICUS       FAIR      77  72  83 CALM      30.13S
$$

!GMZ750-755-770-775-300700
...Coastal and Buoy Obs...

STATION/POSITION TIME  TEMP    WIND        PRES    VSBY  WAVE
                       AIR SEA DIR/SP/G                  HT/PER
                 (UTC) (F)     (DEG/KT/KT) (MB)    (MI)  (FT/S)
KEATON BEACH     0600   76     100/  7/  8 1019.5S
CEDAR KEY        0500   81     120/  9/  9 1019.8S
C TOWER          0600   83     200/  6/  7 1018.7R
APALACHICOLA BUO 0600   85 86  160/  8/ 10 1018.9R         2/ 5
PANAMA CITY BUOY NOT AVBL
MOBILE BUOY      NOT AVBL
ORANGE BCH AL BU 0600   82 85  140/ 14/ 16 1017.9R         3/ 6
$$



USA.gov is the U.S. government's official web portal to all federal, state and local government web resources and services.